PRIVATE WETTERSTATION BILLIGHEIM-ALLFELD                       ZURCK
Wetterdaten: Mittwoch, 15.03.2017
Datum Zeit Temp. A. Temp. A. min Temp. A. max Feuchte A. Luftdruck Regen Wind Richtung Richtung Sonnenschein ET Solar Taupunkt Windchill Windben Empfang
15.03.2017 00:00 4,9 C 4,9 C 4,9 C 89 % 1031,0 hPa 0,0 l/m 0,0 km/h (0 Bft) N 0 0 min 0,000 mm 0 W/m 3,2 C 4,9 C 0,0 km/h (0 Bft) 100 %
15.03.2017 00:10 4,8 C 4,8 C 4,9 C 89 % 1030,9 hPa 0,0 l/m 0,0 km/h (0 Bft) N 0 0 min 0,000 mm 0 W/m 3,1 C 4,8 C 0,0 km/h (0 Bft) 100 %
15.03.2017 00:20 4,8 C 4,8 C 4,8 C 89 % 1030,8 hPa 0,0 l/m 0,0 km/h (0 Bft) N 0 0 min 0,000 mm 0 W/m 3,1 C 4,8 C 0,0 km/h (0 Bft) 100 %
15.03.2017 00:30 4,8 C 4,8 C 4,8 C 89 % 1030,8 hPa 0,0 l/m 0,0 km/h (0 Bft) N 0 0 min 0,000 mm 0 W/m 3,1 C 4,8 C 0,0 km/h (0 Bft) 100 %
15.03.2017 00:40 4,7 C 4,7 C 4,8 C 89 % 1031,0 hPa 0,0 l/m 0,0 km/h (0 Bft) N 0 0 min 0,000 mm 0 W/m 3,0 C 4,7 C 0,0 km/h (0 Bft) 100 %
15.03.2017 00:50 4,6 C 4,6 C 4,7 C 89 % 1030,8 hPa 0,0 l/m 0,0 km/h (0 Bft) N 0 0 min 0,000 mm 0 W/m 2,9 C 4,6 C 0,0 km/h (0 Bft) 100 %
15.03.2017 01:00 4,4 C 4,4 C 4,6 C 89 % 1030,8 hPa 0,0 l/m 0,0 km/h (0 Bft) N 0 0 min 0,000 mm 0 W/m 2,7 C 4,4 C 0,0 km/h (0 Bft) 100 %
15.03.2017 01:10 4,2 C 4,2 C 4,4 C 89 % 1031,1 hPa 0,0 l/m 0,0 km/h (0 Bft) N 0 0 min 0,000 mm 0 W/m 2,6 C 4,2 C 0,0 km/h (0 Bft) 100 %
15.03.2017 01:20 4,0 C 4,0 C 4,2 C 90 % 1031,1 hPa 0,0 l/m 0,0 km/h (0 Bft) N 0 0 min 0,000 mm 0 W/m 2,5 C 4,0 C 0,0 km/h (0 Bft) 100 %
15.03.2017 01:30 3,9 C 3,9 C 4,0 C 90 % 1031,0 hPa 0,0 l/m 0,0 km/h (0 Bft) N 0 0 min 0,000 mm 0 W/m 2,4 C 3,9 C 0,0 km/h (0 Bft) 100 %
15.03.2017 01:40 3,8 C 3,8 C 3,9 C 90 % 1031,1 hPa 0,0 l/m 0,0 km/h (0 Bft) N 0 0 min 0,000 mm 0 W/m 2,3 C 3,8 C 0,0 km/h (0 Bft) 100 %
15.03.2017 01:50 3,8 C 3,8 C 3,9 C 90 % 1031,0 hPa 0,0 l/m 0,0 km/h (0 Bft) N 0 0 min 0,000 mm 0 W/m 2,3 C 3,8 C 0,0 km/h (0 Bft) 100 %
15.03.2017 02:00 3,7 C 3,7 C 3,8 C 90 % 1031,1 hPa 0,0 l/m 0,0 km/h (0 Bft) N 0 0 min 0,000 mm 0 W/m 2,2 C 3,7 C 0,0 km/h (0 Bft) 100 %
15.03.2017 02:10 3,5 C 3,5 C 3,7 C 90 % 1031,0 hPa 0,0 l/m 0,0 km/h (0 Bft) N 0 0 min 0,000 mm 0 W/m 2,0 C 3,5 C 0,0 km/h (0 Bft) 100 %
15.03.2017 02:20 3,4 C 3,4 C 3,5 C 91 % 1030,6 hPa 0,0 l/m 0,0 km/h (0 Bft) NO 45 0 min 0,000 mm 0 W/m 2,1 C 3,4 C 6,4 km/h (2 Bft) 100 %
15.03.2017 02:30 3,9 C 3,5 C 4,1 C 91 % 1030,8 hPa 0,0 l/m 1,6 km/h (1 Bft) O-SO 112 0 min 0,000 mm 0 W/m 2,6 C 3,9 C 6,4 km/h (2 Bft) 100 %
15.03.2017 02:40 3,9 C 3,9 C 3,9 C 91 % 1030,7 hPa 0,0 l/m 0,0 km/h (0 Bft) N 0 0 min 0,000 mm 0 W/m 2,6 C 3,9 C 0,0 km/h (0 Bft) 91 %
15.03.2017 02:50 3,6 C 3,6 C 3,9 C 91 % 1030,7 hPa 0,0 l/m 0,0 km/h (0 Bft) N 0 0 min 0,000 mm 0 W/m 2,3 C 3,6 C 0,0 km/h (0 Bft) 100 %
15.03.2017 03:00 3,3 C 3,3 C 3,6 C 90 % 1030,4 hPa 0,0 l/m 0,0 km/h (0 Bft) N 0 0 min 0,000 mm 0 W/m 1,8 C 3,3 C 0,0 km/h (0 Bft) 100 %
15.03.2017 03:10 3,3 C 3,3 C 3,3 C 91 % 1030,5 hPa 0,0 l/m 0,0 km/h (0 Bft) N 0 0 min 0,000 mm 0 W/m 2,0 C 3,3 C 0,0 km/h (0 Bft) 100 %
15.03.2017 03:20 3,2 C 3,2 C 3,3 C 91 % 1030,3 hPa 0,0 l/m 0,0 km/h (0 Bft) N 0 0 min 0,000 mm 0 W/m 1,9 C 3,2 C 0,0 km/h (0 Bft) 100 %
15.03.2017 03:30 3,2 C 3,1 C 3,2 C 91 % 1030,5 hPa 0,0 l/m 0,0 km/h (0 Bft) N 0 0 min 0,000 mm 0 W/m 1,9 C 3,2 C 0,0 km/h (0 Bft) 100 %
15.03.2017 03:40 3,0 C 3,0 C 3,2 C 91 % 1030,4 hPa 0,0 l/m 0,0 km/h (0 Bft) N 0 0 min 0,000 mm 0 W/m 1,7 C 3,0 C 0,0 km/h (0 Bft) 100 %
15.03.2017 03:50 2,8 C 2,8 C 3,0 C 91 % 1030,7 hPa 0,0 l/m 0,0 km/h (0 Bft) O-SO 112 0 min 0,000 mm 0 W/m 1,5 C 2,8 C 1,6 km/h (1 Bft) 100 %
15.03.2017 04:00 2,7 C 2,7 C 2,8 C 91 % 1030,5 hPa 0,0 l/m 0,0 km/h (0 Bft) N 0 0 min 0,000 mm 0 W/m 1,4 C 2,7 C 0,0 km/h (0 Bft) 100 %
15.03.2017 04:10 2,7 C 2,7 C 2,7 C 91 % 1030,6 hPa 0,0 l/m 0,0 km/h (0 Bft) N 0 0 min 0,000 mm 0 W/m 1,4 C 2,7 C 0,0 km/h (0 Bft) 100 %
15.03.2017 04:20 2,7 C 2,7 C 2,7 C 91 % 1030,6 hPa 0,0 l/m 0,0 km/h (0 Bft) N 0 0 min 0,000 mm 0 W/m 1,4 C 2,7 C 0,0 km/h (0 Bft) 92 %
15.03.2017 04:30 2,6 C 2,6 C 2,7 C 91 % 1030,3 hPa 0,0 l/m 0,0 km/h (0 Bft) N 0 0 min 0,000 mm 0 W/m 1,3 C 2,6 C 0,0 km/h (0 Bft) 100 %
15.03.2017 04:40 2,4 C 2,4 C 2,6 C 91 % 1030,2 hPa 0,0 l/m 0,0 km/h (0 Bft) N 0 0 min 0,000 mm 0 W/m 1,1 C 2,4 C 0,0 km/h (0 Bft) 100 %
15.03.2017 04:50 2,1 C 2,1 C 2,4 C 91 % 1030,2 hPa 0,0 l/m 0,0 km/h (0 Bft) N 0 0 min 0,000 mm 0 W/m 0,8 C 2,1 C 0,0 km/h (0 Bft) 100 %
15.03.2017 05:00 2,1 C 2,1 C 2,1 C 91 % 1030,3 hPa 0,0 l/m 0,0 km/h (0 Bft) N 0 0 min 0,000 mm 0 W/m 0,8 C 2,1 C 0,0 km/h (0 Bft) 100 %
15.03.2017 05:10 2,1 C 2,0 C 2,1 C 91 % 1030,4 hPa 0,0 l/m 0,0 km/h (0 Bft) N 0 0 min 0,000 mm 0 W/m 0,8 C 2,1 C 0,0 km/h (0 Bft) 100 %
15.03.2017 05:20 1,9 C 1,9 C 2,0 C 91 % 1030,5 hPa 0,0 l/m 0,0 km/h (0 Bft) N 0 0 min 0,000 mm 0 W/m 0,6 C 1,9 C 0,0 km/h (0 Bft) 100 %
15.03.2017 05:30 1,8 C 1,8 C 1,9 C 91 % 1030,6 hPa 0,0 l/m 0,0 km/h (0 Bft) O-SO 112 0 min 0,000 mm 0 W/m 0,5 C 1,8 C 1,6 km/h (1 Bft) 100 %
15.03.2017 05:40 1,9 C 1,8 C 1,9 C 91 % 1030,7 hPa 0,0 l/m 0,0 km/h (0 Bft) N 0 0 min 0,000 mm 0 W/m 0,6 C 1,9 C 0,0 km/h (0 Bft) 100 %
15.03.2017 05:50 1,9 C 1,9 C 1,9 C 91 % 1030,5 hPa 0,0 l/m 0,0 km/h (0 Bft) O-SO 112 0 min 0,000 mm 0 W/m 0,6 C 1,9 C 1,6 km/h (1 Bft) 100 %
15.03.2017 06:00 1,8 C 1,8 C 1,9 C 91 % 1030,7 hPa 0,0 l/m 0,0 km/h (0 Bft) N 0 0 min 0,000 mm 0 W/m 0,5 C 1,8 C 0,0 km/h (0 Bft) 90 %
15.03.2017 06:10 1,6 C 1,6 C 1,8 C 91 % 1030,7 hPa 0,0 l/m 0,0 km/h (0 Bft) N 0 0 min 0,000 mm 0 W/m 0,3 C 1,6 C 0,0 km/h (0 Bft) 100 %
15.03.2017 06:20 1,5 C 1,5 C 1,6 C 91 % 1030,8 hPa 0,0 l/m 0,0 km/h (0 Bft) N 0 0 min 0,000 mm 0 W/m 0,2 C 1,5 C 0,0 km/h (0 Bft) 99 %
15.03.2017 06:30 1,6 C 1,5 C 1,6 C 91 % 1031,2 hPa 0,0 l/m 0,0 km/h (0 Bft) N 0 0 min 0,000 mm 0 W/m 0,3 C 1,6 C 0,0 km/h (0 Bft) 100 %
15.03.2017 06:40 1,6 C 1,6 C 1,6 C 91 % 1031,3 hPa 0,0 l/m 0,0 km/h (0 Bft) N 0 0 min 0,000 mm 0 W/m 0,3 C 1,6 C 0,0 km/h (0 Bft) 100 %
15.03.2017 06:50 1,4 C 1,4 C 1,6 C 91 % 1031,5 hPa 0,0 l/m 0,0 km/h (0 Bft) N 0 0 min 0,000 mm 11 W/m 0,1 C 1,4 C 0,0 km/h (0 Bft) 99 %
15.03.2017 07:00 1,2 C 1,2 C 1,4 C 91 % 1031,7 hPa 0,0 l/m 0,0 km/h (0 Bft) N 0 0 min 0,000 mm 18 W/m -0,1 C 1,2 C 0,0 km/h (0 Bft) 100 %
15.03.2017 07:10 1,2 C 1,2 C 1,2 C 91 % 1031,6 hPa 0,0 l/m 0,0 km/h (0 Bft) N 0 0 min 0,000 mm 28 W/m -0,1 C 1,2 C 0,0 km/h (0 Bft) 100 %
15.03.2017 07:20 1,2 C 1,2 C 1,2 C 91 % 1031,6 hPa 0,0 l/m 0,0 km/h (0 Bft) N 0 0 min 0,000 mm 40 W/m -0,1 C 1,2 C 0,0 km/h (0 Bft) 100 %
15.03.2017 07:30 1,3 C 1,2 C 1,3 C 91 % 1031,7 hPa 0,0 l/m 0,0 km/h (0 Bft) N 0 0 min 0,000 mm 51 W/m -0,0 C 1,3 C 0,0 km/h (0 Bft) 90 %
15.03.2017 07:40 1,6 C 1,4 C 1,6 C 91 % 1032,0 hPa 0,0 l/m 0,0 km/h (0 Bft) N 0 0 min 0,000 mm 79 W/m 0,3 C 1,6 C 0,0 km/h (0 Bft) 100 %
15.03.2017 07:50 2,0 C 1,6 C 2,0 C 91 % 1032,1 hPa 0,0 l/m 0,0 km/h (0 Bft) N 0 0 min 0,000 mm 60 W/m 0,7 C 2,0 C 0,0 km/h (0 Bft) 100 %
15.03.2017 08:00 2,7 C 2,0 C 2,7 C 91 % 1032,0 hPa 0,0 l/m 0,0 km/h (0 Bft) N 0 0 min 0,025 mm 70 W/m 1,4 C 2,7 C 0,0 km/h (0 Bft) 100 %
15.03.2017 08:10 2,8 C 2,7 C 2,9 C 92 % 1031,8 hPa 0,0 l/m 0,0 km/h (0 Bft) O-SO 112 0 min 0,000 mm 113 W/m 1,6 C 2,8 C 1,6 km/h (1 Bft) 100 %
15.03.2017 08:20 3,2 C 2,8 C 3,2 C 92 % 1031,7 hPa 0,0 l/m 1,6 km/h (1 Bft) SO 135 0 min 0,000 mm 97 W/m 2,0 C 3,2 C 4,8 km/h (1 Bft) 100 %
15.03.2017 08:30 3,6 C 3,2 C 3,6 C 91 % 1031,8 hPa 0,0 l/m 0,0 km/h (0 Bft) SO 135 0 min 0,000 mm 120 W/m 2,3 C 3,6 C 3,2 km/h (1 Bft) 100 %
15.03.2017 08:40 4,1 C 3,6 C 4,1 C 91 % 1031,9 hPa 0,0 l/m 1,6 km/h (1 Bft) S-SO 157 0 min 0,000 mm 123 W/m 2,8 C 4,1 C 6,4 km/h (2 Bft) 99 %
15.03.2017 08:50 4,3 C 4,1 C 4,3 C 92 % 1031,9 hPa 0,0 l/m 3,2 km/h (1 Bft) S 180 10 min 0,000 mm 311 W/m 3,1 C 4,3 C 6,4 km/h (2 Bft) 100 %
15.03.2017 09:00 4,8 C 4,3 C 4,8 C 92 % 1032,1 hPa 0,0 l/m 3,2 km/h (1 Bft) S-SO 157 10 min 0,051 mm 214 W/m 3,6 C 4,8 C 8,0 km/h (2 Bft) 100 %
15.03.2017 09:10 5,2 C 4,8 C 5,2 C 91 % 1032,2 hPa 0,0 l/m 1,6 km/h (1 Bft) S-SO 157 10 min 0,000 mm 199 W/m 3,9 C 5,2 C 6,4 km/h (2 Bft) 100 %
15.03.2017 09:20 5,8 C 5,2 C 5,8 C 91 % 1032,3 hPa 0,0 l/m 0,0 km/h (0 Bft) N 0 10 min 0,000 mm 267 W/m 4,4 C 5,8 C 0,0 km/h (0 Bft) 90 %
15.03.2017 09:30 6,3 C 5,8 C 6,3 C 91 % 1032,2 hPa 0,0 l/m 0,0 km/h (0 Bft) S-SO 157 10 min 0,000 mm 243 W/m 4,9 C 6,3 C 4,8 km/h (1 Bft) 100 %
15.03.2017 09:40 6,7 C 6,3 C 6,7 C 90 % 1032,3 hPa 0,0 l/m 0,0 km/h (0 Bft) N 0 10 min 0,000 mm 250 W/m 5,2 C 6,7 C 0,0 km/h (0 Bft) 100 %
15.03.2017 09:50 6,8 C 6,7 C 6,8 C 89 % 1032,2 hPa 0,0 l/m 0,0 km/h (0 Bft) S-SO 157 10 min 0,000 mm 204 W/m 5,1 C 6,8 C 1,6 km/h (1 Bft) 100 %
15.03.2017 10:00 6,9 C 6,8 C 6,9 C 89 % 1032,0 hPa 0,0 l/m 0,0 km/h (0 Bft) S-SO 157 10 min 0,076 mm 195 W/m 5,2 C 6,9 C 6,4 km/h (2 Bft) 100 %
15.03.2017 10:10 6,9 C 6,9 C 6,9 C 88 % 1032,0 hPa 0,0 l/m 1,6 km/h (1 Bft) S-SO 157 10 min 0,000 mm 158 W/m 5,1 C 6,9 C 6,4 km/h (2 Bft) 100 %
15.03.2017 10:20 7,5 C 6,9 C 7,5 C 87 % 1031,9 hPa 0,0 l/m 3,2 km/h (1 Bft) S-SO 157 10 min 0,000 mm 461 W/m 5,5 C 7,5 C 6,4 km/h (2 Bft) 100 %
15.03.2017 10:30 8,2 C 7,5 C 8,2 C 86 % 1032,1 hPa 0,0 l/m 3,2 km/h (1 Bft) S 180 10 min 0,000 mm 490 W/m 6,0 C 8,2 C 8,0 km/h (2 Bft) 100 %
15.03.2017 10:40 8,9 C 8,2 C 8,9 C 84 % 1032,0 hPa 0,0 l/m 4,8 km/h (1 Bft) S-SW 202 10 min 0,000 mm 548 W/m 6,3 C 8,9 C 9,7 km/h (2 Bft) 100 %
15.03.2017 10:50 9,1 C 8,9 C 9,1 C 82 % 1032,0 hPa 0,0 l/m 4,8 km/h (1 Bft) S-SW 202 10 min 0,000 mm 308 W/m 6,2 C 9,1 C 9,7 km/h (2 Bft) 100 %
15.03.2017 11:00 8,9 C 8,9 C 9,1 C 83 % 1032,1 hPa 0,0 l/m 3,2 km/h (1 Bft) S 180 10 min 0,152 mm 318 W/m 6,2 C 8,9 C 8,0 km/h (2 Bft) 100 %
15.03.2017 11:10 9,1 C 8,9 C 9,1 C 84 % 1032,1 hPa 0,0 l/m 3,2 km/h (1 Bft) S 180 10 min 0,000 mm 253 W/m 6,5 C 9,1 C 8,0 km/h (2 Bft) 100 %
15.03.2017 11:20 9,3 C 9,1 C 9,3 C 82 % 1032,1 hPa 0,0 l/m 3,2 km/h (1 Bft) S 180 10 min 0,000 mm 288 W/m 6,4 C 9,3 C 6,4 km/h (2 Bft) 100 %
15.03.2017 11:30 9,3 C 9,3 C 9,3 C 82 % 1032,1 hPa 0,0 l/m 0,0 km/h (0 Bft) S 180 10 min 0,000 mm 220 W/m 6,4 C 9,3 C 6,4 km/h (2 Bft) 100 %
15.03.2017 11:40 9,6 C 9,3 C 9,6 C 83 % 1032,0 hPa 0,0 l/m 4,8 km/h (1 Bft) S 180 10 min 0,000 mm 483 W/m 6,9 C 9,6 C 9,7 km/h (2 Bft) 100 %
15.03.2017 11:50 10,1 C 9,6 C 10,1 C 82 % 1031,8 hPa 0,0 l/m 6,4 km/h (2 Bft) S 180 10 min 0,000 mm 438 W/m 7,2 C 10,1 C 14,5 km/h (3 Bft) 100 %
15.03.2017 12:00 10,6 C 10,1 C 10,6 C 80 % 1031,7 hPa 0,0 l/m 8,0 km/h (2 Bft) S-SW 202 10 min 0,152 mm 461 W/m 7,3 C 9,5 C 12,9 km/h (3 Bft) 100 %
15.03.2017 12:10 10,8 C 10,6 C 10,8 C 79 % 1031,9 hPa 0,0 l/m 4,8 km/h (1 Bft) S-SW 202 10 min 0,000 mm 424 W/m 7,3 C 10,8 C 9,7 km/h (2 Bft) 100 %
15.03.2017 12:20 10,7 C 10,7 C 10,8 C 79 % 1031,9 hPa 0,0 l/m 1,6 km/h (1 Bft) S 180 10 min 0,000 mm 323 W/m 7,2 C 10,7 C 6,4 km/h (2 Bft) 100 %
15.03.2017 12:30 10,8 C 10,8 C 10,8 C 79 % 1031,7 hPa 0,0 l/m 0,0 km/h (0 Bft) S 180 10 min 0,000 mm 323 W/m 7,3 C 10,8 C 6,4 km/h (2 Bft) 100 %
15.03.2017 12:40 11,1 C 10,8 C 11,1 C 79 % 1031,6 hPa 0,0 l/m 3,2 km/h (1 Bft) S 180 10 min 0,000 mm 559 W/m 7,6 C 11,1 C 8,0 km/h (2 Bft) 100 %
15.03.2017 12:50 11,6 C 11,1 C 11,6 C 77 % 1031,4 hPa 0,0 l/m 4,8 km/h (1 Bft) S 180 10 min 0,000 mm 691 W/m 7,7 C 11,6 C 9,7 km/h (2 Bft) 100 %
15.03.2017 13:00 12,0 C 11,6 C 12,0 C 77 % 1031,3 hPa 0,0 l/m 4,8 km/h (1 Bft) S-SO 157 10 min 0,178 mm 773 W/m 8,1 C 12,0 C 11,3 km/h (2 Bft) 100 %
15.03.2017 13:10 12,7 C 12,0 C 12,7 C 73 % 1031,2 hPa 0,0 l/m 6,4 km/h (2 Bft) S-SW 202 10 min 0,000 mm 779 W/m 8,0 C 12,7 C 19,3 km/h (3 Bft) 100 %
15.03.2017 13:20 12,7 C 12,7 C 12,7 C 73 % 1030,9 hPa 0,0 l/m 6,4 km/h (2 Bft) S 180 10 min 0,000 mm 605 W/m 8,0 C 12,7 C 16,1 km/h (3 Bft) 100 %
15.03.2017 13:30 13,2 C 12,7 C 13,2 C 71 % 1030,9 hPa 0,0 l/m 6,4 km/h (2 Bft) S-SW 202 10 min 0,000 mm 629 W/m 8,1 C 13,2 C 14,5 km/h (3 Bft) 92 %
15.03.2017 13:40 13,4 C 13,2 C 13,4 C 71 % 1030,9 hPa 0,0 l/m 6,4 km/h (2 Bft) SW 225 10 min 0,000 mm 628 W/m 8,3 C 13,4 C 17,7 km/h (3 Bft) 100 %
15.03.2017 13:50 12,9 C 12,9 C 13,4 C 72 % 1030,8 hPa 0,0 l/m 6,4 km/h (2 Bft) S 180 10 min 0,000 mm 239 W/m 8,0 C 12,9 C 11,3 km/h (2 Bft) 100 %
15.03.2017 14:00 12,7 C 12,7 C 12,9 C 73 % 1030,7 hPa 0,0 l/m 6,4 km/h (2 Bft) S-SW 202 10 min 0,229 mm 311 W/m 8,0 C 12,7 C 12,9 km/h (3 Bft) 99 %
15.03.2017 14:10 12,6 C 12,6 C 12,7 C 73 % 1030,7 hPa 0,0 l/m 4,8 km/h (1 Bft) S-SW 202 10 min 0,000 mm 251 W/m 7,9 C 12,6 C 12,9 km/h (3 Bft) 100 %
15.03.2017 14:20 12,4 C 12,4 C 12,5 C 74 % 1030,6 hPa 0,0 l/m 1,6 km/h (1 Bft) S-SO 157 10 min 0,000 mm 220 W/m 7,9 C 12,4 C 9,7 km/h (2 Bft) 100 %
15.03.2017 14:30 12,6 C 12,4 C 12,6 C 73 % 1030,6 hPa 0,0 l/m 3,2 km/h (1 Bft) S-SW 202 10 min 0,000 mm 253 W/m 7,9 C 12,6 C 11,3 km/h (2 Bft) 100 %
15.03.2017 14:40 12,7 C 12,6 C 12,8 C 72 % 1030,6 hPa 0,0 l/m 4,8 km/h (1 Bft) S-SW 202 10 min 0,000 mm 258 W/m 7,8 C 12,7 C 11,3 km/h (2 Bft) 100 %
15.03.2017 14:50 12,7 C 12,7 C 12,8 C 72 % 1030,5 hPa 0,0 l/m 3,2 km/h (1 Bft) S-SW 202 10 min 0,000 mm 248 W/m 7,8 C 12,7 C 9,7 km/h (2 Bft) 100 %
15.03.2017 15:00 12,7 C 12,7 C 12,8 C 73 % 1030,5 hPa 0,0 l/m 3,2 km/h (1 Bft) SO 135 10 min 0,127 mm 229 W/m 8,0 C 12,7 C 8,0 km/h (2 Bft) 100 %
15.03.2017 15:10 12,8 C 12,7 C 12,8 C 72 % 1030,3 hPa 0,0 l/m 3,2 km/h (1 Bft) S-SW 202 10 min 0,000 mm 230 W/m 7,9 C 12,8 C 11,3 km/h (2 Bft) 100 %
15.03.2017 15:20 12,8 C 12,7 C 12,8 C 73 % 1030,3 hPa 0,0 l/m 4,8 km/h (1 Bft) S-SW 202 10 min 0,000 mm 230 W/m 8,1 C 12,8 C 11,3 km/h (2 Bft) 100 %
15.03.2017 15:30 13,1 C 12,8 C 13,1 C 72 % 1030,1 hPa 0,0 l/m 1,6 km/h (1 Bft) S-SW 202 10 min 0,000 mm 218 W/m 8,2 C 13,1 C 9,7 km/h (2 Bft) 100 %
15.03.2017 15:40 13,2 C 13,0 C 13,2 C 71 % 1030,0 hPa 0,0 l/m 4,8 km/h (1 Bft) S-SW 202 10 min 0,000 mm 174 W/m 8,1 C 13,2 C 11,3 km/h (2 Bft) 99 %
15.03.2017 15:50 13,1 C 13,1 C 13,2 C 71 % 1030,0 hPa 0,0 l/m 4,8 km/h (1 Bft) SW 225 0 min 0,000 mm 146 W/m 8,0 C 13,1 C 11,3 km/h (2 Bft) 99 %
15.03.2017 16:00 13,1 C 13,1 C 13,1 C 71 % 1029,8 hPa 0,0 l/m 4,8 km/h (1 Bft) S-SW 202 10 min 0,102 mm 153 W/m 8,0 C 13,1 C 9,7 km/h (2 Bft) 100 %
15.03.2017 16:10 13,1 C 13,1 C 13,1 C 71 % 1029,6 hPa 0,0 l/m 4,8 km/h (1 Bft) W-SW 247 10 min 0,000 mm 163 W/m 8,0 C 13,1 C 9,7 km/h (2 Bft) 100 %
15.03.2017 16:20 13,1 C 13,1 C 13,1 C 70 % 1029,6 hPa 0,0 l/m 3,2 km/h (1 Bft) S-SW 202 10 min 0,000 mm 165 W/m 7,8 C 13,1 C 9,7 km/h (2 Bft) 100 %
15.03.2017 16:30 13,1 C 13,1 C 13,2 C 71 % 1029,5 hPa 0,0 l/m 3,2 km/h (1 Bft) SW 225 0 min 0,000 mm 151 W/m 8,0 C 13,1 C 8,0 km/h (2 Bft) 100 %
15.03.2017 16:40 13,2 C 13,1 C 13,2 C 71 % 1029,4 hPa 0,0 l/m 4,8 km/h (1 Bft) S-SW 202 10 min 0,000 mm 156 W/m 8,1 C 13,2 C 14,5 km/h (3 Bft) 100 %
15.03.2017 16:50 13,2 C 13,2 C 13,3 C 70 % 1029,4 hPa 0,0 l/m 1,6 km/h (1 Bft) SW 225 0 min 0,000 mm 151 W/m 7,9 C 13,2 C 9,7 km/h (2 Bft) 98 %
15.03.2017 17:00 13,2 C 13,2 C 13,3 C 70 % 1029,5 hPa 0,0 l/m 4,8 km/h (1 Bft) SW 225 0 min 0,102 mm 142 W/m 7,9 C 13,2 C 9,7 km/h (2 Bft) 98 %
15.03.2017 17:10 13,2 C 13,2 C 13,2 C 71 % 1029,4 hPa 0,0 l/m 3,2 km/h (1 Bft) W-SW 247 0 min 0,000 mm 120 W/m 8,1 C 13,2 C 9,7 km/h (2 Bft) 98 %
15.03.2017 17:20 13,1 C 13,1 C 13,2 C 70 % 1029,4 hPa 0,0 l/m 3,2 km/h (1 Bft) W-SW 247 0 min 0,000 mm 95 W/m 7,8 C 13,1 C 9,7 km/h (2 Bft) 98 %
15.03.2017 17:30 12,8 C 12,8 C 13,1 C 72 % 1029,4 hPa 0,0 l/m 4,8 km/h (1 Bft) SW 225 0 min 0,000 mm 84 W/m 7,9 C 12,8 C 11,3 km/h (2 Bft) 98 %
15.03.2017 17:40 12,7 C 12,7 C 12,8 C 71 % 1029,5 hPa 0,0 l/m 1,6 km/h (1 Bft) SW 225 0 min 0,000 mm 74 W/m 7,6 C 12,7 C 8,0 km/h (2 Bft) 97 %
15.03.2017 17:50 12,5 C 12,5 C 12,7 C 72 % 1029,4 hPa 0,0 l/m 1,6 km/h (1 Bft) SW 225 0 min 0,000 mm 54 W/m 7,6 C 12,5 C 6,4 km/h (2 Bft) 98 %
15.03.2017 18:00 12,2 C 12,2 C 12,4 C 74 % 1029,5 hPa 0,0 l/m 0,0 km/h (0 Bft) SW 225 0 min 0,051 mm 47 W/m 7,7 C 12,2 C 1,6 km/h (1 Bft) 97 %
15.03.2017 18:10 11,8 C 11,8 C 12,2 C 74 % 1029,5 hPa 0,0 l/m 0,0 km/h (0 Bft) SW 225 0 min 0,000 mm 39 W/m 7,3 C 11,8 C 4,8 km/h (1 Bft) 98 %
15.03.2017 18:20 11,4 C 11,4 C 11,8 C 75 % 1029,6 hPa 0,0 l/m 0,0 km/h (0 Bft) N 0 0 min 0,000 mm 18 W/m 7,1 C 11,4 C 0,0 km/h (0 Bft) 98 %
15.03.2017 18:30 11,2 C 11,2 C 11,8 C 76 % 1029,5 hPa 0,0 l/m 0,0 km/h (0 Bft) SW 222 0 min 0,000 mm 7 W/m 7,1 C 11,2 C 0,0 km/h (0 Bft) 100 %
15.03.2017 18:40 10,9 C 10,9 C 11,2 C 77 % 1029,4 hPa 0,0 l/m 0,0 km/h (0 Bft) SW 222 0 min 0,000 mm 0 W/m 7,0 C 10,9 C 0,0 km/h (0 Bft) 100 %
15.03.2017 18:50 10,7 C 10,7 C 11,0 C 78 % 1029,4 hPa 0,0 l/m 0,0 km/h (0 Bft) SW 222 0 min 0,000 mm 0 W/m 7,0 C 10,7 C 1,6 km/h (1 Bft) 100 %
15.03.2017 19:00 10,4 C 10,4 C 10,7 C 79 % 1029,4 hPa 0,0 l/m 0,0 km/h (0 Bft) SW 222 0 min 0,000 mm 0 W/m 6,9 C 10,4 C 0,0 km/h (0 Bft) 100 %
15.03.2017 19:10 10,3 C 10,3 C 10,4 C 78 % 1029,4 hPa 0,0 l/m 0,0 km/h (0 Bft) SW 222 0 min 0,000 mm 0 W/m 6,6 C 10,3 C 0,0 km/h (0 Bft) 91 %
15.03.2017 19:20 10,2 C 10,2 C 10,3 C 78 % 1029,4 hPa 0,0 l/m 0,0 km/h (0 Bft) SW 222 0 min 0,000 mm 0 W/m 6,5 C 10,2 C 1,6 km/h (1 Bft) 100 %
15.03.2017 19:30 10,1 C 10,1 C 10,2 C 78 % 1029,4 hPa 0,0 l/m 0,0 km/h (0 Bft) SW 222 0 min 0,000 mm 0 W/m 6,4 C 10,1 C 0,0 km/h (0 Bft) 100 %
15.03.2017 19:40 9,9 C 9,9 C 10,1 C 79 % 1029,5 hPa 0,0 l/m 0,0 km/h (0 Bft) SW 222 0 min 0,000 mm 0 W/m 6,4 C 9,9 C 0,0 km/h (0 Bft) 100 %
15.03.2017 19:50 9,7 C 9,7 C 9,9 C 79 % 1029,5 hPa 0,0 l/m 0,0 km/h (0 Bft) SW 222 0 min 0,000 mm 0 W/m 6,2 C 9,7 C 0,0 km/h (0 Bft) 100 %
15.03.2017 20:00 9,4 C 9,4 C 9,7 C 80 % 1029,5 hPa 0,0 l/m 0,4 km/h (0 Bft) SW 236 0 min 0,000 mm 0 W/m 6,1 C 9,4 C 3,2 km/h (1 Bft) 100 %
15.03.2017 20:10 9,2 C 9,2 C 9,4 C 80 % 1029,5 hPa 0,0 l/m 0,0 km/h (0 Bft) SW 236 0 min 0,025 mm 0 W/m 5,9 C 9,2 C 0,0 km/h (0 Bft) 100 %
15.03.2017 20:20 9,0 C 9,0 C 9,2 C 81 % 1029,4 hPa 0,0 l/m 0,0 km/h (0 Bft) W-SW 240 0 min 0,000 mm 0 W/m 5,9 C 9,0 C 1,6 km/h (1 Bft) 100 %
15.03.2017 20:30 8,8 C 8,8 C 9,0 C 82 % 1029,5 hPa 0,0 l/m 0,0 km/h (0 Bft) W-SW 240 0 min 0,000 mm 0 W/m 5,9 C 8,8 C 0,0 km/h (0 Bft) 91 %
15.03.2017 20:40 8,7 C 8,7 C 8,8 C 83 % 1029,4 hPa 0,0 l/m 0,0 km/h (0 Bft) W-SW 240 0 min 0,000 mm 0 W/m 6,0 C 8,7 C 0,0 km/h (0 Bft) 100 %
15.03.2017 20:50 8,8 C 8,7 C 8,8 C 82 % 1029,4 hPa 0,0 l/m 0,0 km/h (0 Bft) W-SW 240 0 min 0,000 mm 0 W/m 5,9 C 8,8 C 0,0 km/h (0 Bft) 100 %
15.03.2017 21:00 8,7 C 8,7 C 8,8 C 82 % 1029,4 hPa 0,0 l/m 0,0 km/h (0 Bft) W-SW 240 0 min 0,000 mm 0 W/m 5,8 C 8,7 C 0,0 km/h (0 Bft) 100 %
15.03.2017 21:10 8,5 C 8,5 C 8,7 C 82 % 1029,4 hPa 0,0 l/m 0,0 km/h (0 Bft) N 0 0 min 0,000 mm 0 W/m 5,6 C 8,5 C 0,0 km/h (0 Bft) 97 %
15.03.2017 21:20 8,1 C 8,1 C 8,4 C 83 % 1029,3 hPa 0,0 l/m 0,0 km/h (0 Bft) W-SW 247 0 min 0,000 mm 0 W/m 5,4 C 8,1 C 3,2 km/h (1 Bft) 98 %
15.03.2017 21:30 8,1 C 8,1 C 8,1 C 84 % 1029,3 hPa 0,0 l/m 0,0 km/h (0 Bft) N 0 0 min 0,000 mm 0 W/m 5,6 C 8,1 C 0,0 km/h (0 Bft) 97 %
15.03.2017 21:40 8,2 C 8,1 C 8,2 C 84 % 1029,2 hPa 0,0 l/m 0,0 km/h (0 Bft) N 0 0 min 0,000 mm 0 W/m 5,7 C 8,2 C 0,0 km/h (0 Bft) 98 %
15.03.2017 21:50 7,9 C 7,9 C 8,2 C 82 % 1029,3 hPa 0,0 l/m 0,0 km/h (0 Bft) N 0 0 min 0,000 mm 0 W/m 5,0 C 7,9 C 0,0 km/h (0 Bft) 98 %
15.03.2017 22:00 7,2 C 7,2 C 7,9 C 84 % 1029,4 hPa 0,0 l/m 0,0 km/h (0 Bft) W-SW 247 0 min 0,000 mm 0 W/m 4,7 C 7,2 C 1,6 km/h (1 Bft) 98 %
15.03.2017 22:10 6,6 C 6,6 C 7,2 C 86 % 1029,3 hPa 0,0 l/m 0,0 km/h (0 Bft) W-SW 247 0 min 0,000 mm 0 W/m 4,4 C 6,6 C 1,6 km/h (1 Bft) 98 %
15.03.2017 22:20 6,4 C 6,4 C 6,6 C 87 % 1029,4 hPa 0,0 l/m 0,0 km/h (0 Bft) W-SW 247 0 min 0,000 mm 0 W/m 4,4 C 6,4 C 1,6 km/h (1 Bft) 97 %
15.03.2017 22:30 6,1 C 6,1 C 6,4 C 88 % 1029,3 hPa 0,0 l/m 0,0 km/h (0 Bft) N 0 0 min 0,000 mm 0 W/m 4,3 C 6,1 C 0,0 km/h (0 Bft) 98 %
15.03.2017 22:40 5,9 C 5,9 C 6,1 C 89 % 1029,3 hPa 0,0 l/m 0,0 km/h (0 Bft) N 0 0 min 0,000 mm 0 W/m 4,2 C 5,9 C 0,0 km/h (0 Bft) 97 %
15.03.2017 22:50 5,7 C 5,7 C 5,9 C 89 % 1029,2 hPa 0,0 l/m 0,0 km/h (0 Bft) N 0 0 min 0,000 mm 0 W/m 4,0 C 5,7 C 0,0 km/h (0 Bft) 98 %
15.03.2017 23:00 5,4 C 5,4 C 5,7 C 89 % 1029,3 hPa 0,0 l/m 0,0 km/h (0 Bft) N 0 0 min 0,000 mm 0 W/m 3,7 C 5,4 C 0,0 km/h (0 Bft) 98 %
15.03.2017 23:10 4,9 C 4,9 C 5,4 C 89 % 1029,3 hPa 0,0 l/m 0,0 km/h (0 Bft) N 0 0 min 0,000 mm 0 W/m 3,2 C 4,9 C 0,0 km/h (0 Bft) 97 %
15.03.2017 23:20 4,8 C 4,8 C 4,9 C 90 % 1029,2 hPa 0,0 l/m 0,0 km/h (0 Bft) N 0 0 min 0,000 mm 0 W/m 3,3 C 4,8 C 0,0 km/h (0 Bft) 97 %
15.03.2017 23:30 4,7 C 4,7 C 4,8 C 91 % 1029,1 hPa 0,0 l/m 0,0 km/h (0 Bft) N 0 0 min 0,000 mm 0 W/m 3,4 C 4,7 C 0,0 km/h (0 Bft) 97 %
15.03.2017 23:40 4,7 C 4,7 C 4,8 C 91 % 1029,0 hPa 0,0 l/m 0,0 km/h (0 Bft) N 0 0 min 0,000 mm 0 W/m 3,4 C 4,7 C 0,0 km/h (0 Bft) 90 %
15.03.2017 23:50 4,5 C 4,5 C 4,7 C 90 % 1029,0 hPa 0,0 l/m 0,0 km/h (0 Bft) N 0 0 min 0,000 mm 0 W/m 3,0 C 4,5 C 0,0 km/h (0 Bft) 97 %
_ Min-Zeit 07:00 07:00 07:10 16:20 23:40 - 00:00 - - - - - 07:00 07:00 00:00 06:00
Minimum _ 1,2 C 1,2 C 1,2 C 70 % 1029,0 hPa - 0,0 km/h (0 Bft) - - - - - -0,1 C 1,2 C 0,0 km/h (0 Bft) 90 %
_ Max-Zeit 13:40 13:40 13:40 08:10 09:20 00:00 12:00 - - 08:50 14:00 13:10 13:40 13:40 13:10 00:10
Maximum _ 13,4 C 13,2 C 13,4 C 92 % 1032,3 hPa 0,0 l/m 8,0 km/h
S-SW (2 Bft)
- - 10 min 0,229 mm 779 W/m 8,3 C 13,4 C 19,3 km/h
S (3 Bft)
100 %
Durchschnitt _ 7,3 C 7,2 C 7,4 C 84 % 1030,6 hPa #0,0 l/m 1,4 km/h (1 Bft) S-SW - #7:40 h #1,270 mm 246 W/m 4,6 C 7,3 C 4,0 km/h (1 Bft) 99 %
PRIVATE WETTERSTATION BILLIGHEIM-ALLFELD - www.neckar-odenwald-wetter.de - Holger Sonntag